Vorticity
2 6 4 3 7 6 29 22 1 7 3 6 2 1 11 7 4 8 10 5 3 4 3 5 6 8 6 7 7 6 7 8 8 4 4 6 6 8 8 7 7 9 9 8 7 6 7 8 8 8 7 5 6 7 6 5 4 5 4 5 5 5 4 3 5 5 5 4 3 3 5 7 5 5 6 7 5 4 3 5 9 8 5 7 8 9 8 7 8 9 8 5 6 6 5 5 6
4 7 3 3 5 3 30 22 0 7 4 6 1 5 12 5 5 8 12 6 3 3 3 5 5 7 6 7 6 4 5 5 10 9 7 7 6 8 10 8 7 8 8 7 7 7 8 9 8 6 4 5 7 8 6 6 6 5 5 5 4 5 4 3 4 4 3 2 3 4 5 5 5 5 5 5 4 4 4 6 8 6 5 7 8 9 8 7 8 10 8 5 5 5 4 5 9
4 6 3 2 2 5 34 25 1 5 4 4 2 6 9 6 6 7 13 10 7 5 3 3 2 5 6 9 7 4 4 4 10 12 8 8 8 9 9 8 7 6 6 7 7 7 9 9 7 4 4 6 6 6 5 5 5 4 3 3 4 4 3 4 5 5 3 2 4 4 5 5 5 6 5 4 4 5 4 5 6 6 7 9 11 10 8 8 9 8 5 5 6 5 4 6 11
3 4 3 1 -2 10 40 26 1 3 2 4 3 5 8 6 5 6 11 10 9 6 3 4 4 4 5 9 10 5 5 5 7 11 7 6 9 8 8 7 7 6 7 6 6 6 7 7 6 5 5 6 5 3 3 4 3 2 3 3 3 2 3 4 5 5 4 4 4 4 6 5 7 6 6 5 5 6 5 5 6 7 10 13 12 9 7 9 9 5 3 5 5 4 4 8 11
4 3 3 5 -1 21 48 23 1 3 4 5 3 5 7 4 4 6 6 6 7 7 5 6 7 6 5 5 6 5 7 8 7 10 6 5 7 6 6 5 6 6 6 5 4 5 5 5 5 5 5 5 4 3 3 3 3 3 4 4 3 3 4 5 5 5 4 5 4 4 6 5 6 6 7 6 6 7 5 5 6 6 10 12 8 6 7 8 7 4 4 6 5 4 5 9 10
4 0 3 6 1 38 52 15 3 5 7 7 3 5 5 4 6 9 9 7 7 8 7 6 8 7 5 5 5 5 8 11 9 9 6 6 6 5 5 3 5 4 4 4 4 6 5 5 4 4 4 4 4 4 4 3 4 3 5 5 5 5 5 6 6 5 5 5 5 4 4 5 6 6 7 7 6 7 5 6 6 6 9 9 6 5 7 6 6 4 4 6 4 3 6 10 9
5 -1 2 3 2 46 46 7 4 6 10 5 0 6 5 5 5 11 14 9 8 7 7 7 7 5 4 4 5 6 7 10 10 9 6 7 5 4 5 3 5 4 5 4 5 6 4 4 5 5 3 3 4 4 4 4 5 4 5 5 6 7 7 8 7 7 5 6 5 4 5 5 6 6 6 7 7 6 5 6 6 6 9 8 5 5 6 6 5 4 5 5 4 4 8 10 8
5 0 1 -1 1 40 36 4 3 4 10 3 -2 8 6 7 5 11 12 8 7 6 6 5 5 6 5 5 6 6 5 7 8 6 5 7 5 4 5 4 5 6 6 6 6 6 5 4 4 5 4 3 3 4 5 6 5 5 6 5 6 7 8 8 8 7 6 7 6 6 6 5 6 6 6 7 8 7 6 7 7 8 9 7 5 4 5 6 4 4 6 5 3 5 9 9 6
4 2 -2 -1 1 28 29 3 4 7 6 1 0 8 7 7 8 11 10 8 7 4 5 5 6 10 7 5 6 6 5 4 4 5 5 6 6 6 6 6 5 6 8 8 7 6 6 5 6 6 5 5 6 5 5 6 6 4 6 6 7 8 8 7 7 7 7 7 6 7 7 5 6 6 7 8 8 7 6 8 8 10 9 5 5 4 4 5 4 5 5 5 4 6 10 9 4
4 5 -0 3 1 18 38 12 2 10 3 1 4 7 6 7 10 11 9 8 8 5 6 6 6 9 6 3 4 5 4 3 4 7 6 5 5 5 6 6 5 6 6 8 9 8 7 5 6 7 5 6 8 7 3 6 9 5 6 6 8 9 7 7 7 7 7 7 6 7 7 6 5 7 9 9 10 6 6 9 9 10 7 3 3 3 4 5 5 5 5 4 5 8 10 7 3
3 6 1 6 -1 8 42 23 -0 7 1 2 8 6 6 8 10 8 6 7 7 6 6 6 5 6 6 3 3 4 3 3 6 9 8 6 6 5 5 5 5 5 5 6 8 8 9 8 8 7 6 6 7 8 5 7 8 6 7 6 7 7 5 6 7 7 7 8 8 6 8 7 5 7 9 11 10 6 7 10 11 11 6 3 3 3 5 7 7 5 5 4 6 11 11 6 3
2 5 2 3 1 -1 22 19 6 10 0 5 11 4 6 10 9 7 7 8 7 8 7 7 5 6 5 2 3 3 2 3 6 8 8 8 7 7 6 5 4 6 6 6 7 7 8 8 9 10 9 10 9 8 9 9 8 9 8 6 7 6 6 6 7 7 8 9 9 7 8 8 5 7 9 11 9 6 9 11 12 9 5 4 4 5 7 8 8 6 5 4 8 11 9 5 3
2 5 5 1 3 -1 5 12 16 17 -0 5 12 0 6 9 7 8 7 9 10 10 8 5 6 4 1 2 2 1 2 3 5 6 7 8 7 8 8 7 5 6 6 6 7 7 7 7 8 10 9 10 11 8 10 9 8 9 6 7 8 6 7 6 7 8 9 10 9 7 8 7 6 6 7 10 7 7 11 10 9 6 4 5 5 7 8 9 8 6 5 4 9 10 7 4 3
4 3 6 3 3 -1 2 8 17 24 1 4 12 -2 6 8 5 9 6 10 11 9 8 5 7 6 3 5 2 0 2 2 4 6 7 8 6 7 8 8 5 5 6 6 7 6 6 6 7 10 8 9 11 11 12 11 9 7 5 8 8 6 6 6 7 9 10 9 8 8 9 8 6 7 7 7 6 8 11 8 5 4 5 6 7 9 9 10 8 6 4 5 10 9 5 4 3
5 4 6 5 6 -0 3 4 13 30 5 1 14 -3 4 8 6 9 5 9 7 5 7 4 6 8 7 5 3 3 2 3 5 6 7 7 7 8 8 8 6 4 5 6 8 7 6 6 7 10 11 9 9 9 9 10 9 7 8 9 6 5 7 7 7 9 9 8 8 8 10 10 7 8 7 5 7 10 10 6 4 5 6 8 9 9 9 10 8 5 4 7 10 7 4 3 3
6 5 5 5 7 2 7 6 10 33 13 4 14 -2 4 8 6 8 3 7 5 4 8 7 5 5 6 5 6 6 3 4 5 6 6 7 8 9 10 8 5 4 6 8 8 7 8 8 7 9 11 9 8 7 6 8 8 6 6 10 9 6 8 9 9 9 9 8 9 10 11 9 7 8 7 6 9 11 8 5 5 6 9 11 10 9 10 9 7 5 5 9 9 6 4 4 3
5 4 6 5 4 -1 6 12 14 26 16 10 9 -2 3 4 5 7 3 7 9 10 8 7 7 5 7 7 8 7 5 5 4 6 6 7 8 9 9 7 5 6 7 7 6 7 9 9 8 10 10 9 7 7 8 7 9 7 5 10 11 8 10 10 9 10 10 9 9 10 11 9 9 8 6 7 10 10 7 5 5 7 10 11 10 9 9 8 5 5 7 9 8 5 3 3 3
4 3 6 2 3 -0 1 15 23 18 12 12 4 -2 1 -0 4 5 4 7 8 11 6 3 6 7 7 7 8 7 5 4 5 6 6 8 8 7 7 5 5 5 6 7 7 9 11 9 8 10 9 7 6 6 8 8 10 10 10 13 13 11 13 12 11 11 10 10 11 10 10 10 10 7 7 8 10 8 5 5 5 8 10 9 9 8 8 6 4 6 9 9 6 4 3 2 3
4 4 3 -0 2 2 1 21 32 16 10 12 2 2 1 -3 3 3 5 9 7 8 2 1 4 4 4 6 7 6 5 4 5 6 6 9 8 7 5 4 5 5 7 9 11 12 12 8 7 11 8 5 6 7 9 9 9 11 13 15 16 16 15 14 13 13 13 11 11 11 10 10 8 6 8 9 8 7 4 5 6 8 9 9 9 8 7 5 5 9 10 8 5 3 3 3 4
4 4 4 4 -1 0 14 37 39 13 9 11 1 6 2 -3 4 2 6 8 7 9 6 4 2 1 2 5 6 4 5 4 6 6 6 8 8 8 6 7 8 7 8 8 11 11 11 9 7 10 8 6 8 9 10 9 8 11 14 14 15 20 18 16 14 15 15 12 10 9 9 9 8 7 9 9 8 6 4 5 6 8 8 9 9 8 6 5 6 10 11 8 4 3 3 3 4
4 3 4 4 -1 5 25 49 44 8 6 12 -3 5 4 -2 2 -0 4 5 4 8 10 8 2 0 0 4 5 4 6 6 7 7 5 7 9 9 9 10 8 8 10 8 10 9 9 9 8 9 6 7 11 12 12 11 12 12 13 13 14 17 15 13 12 11 11 10 9 7 8 9 9 10 10 10 7 5 5 5 6 7 8 9 9 7 6 6 8 10 11 7 2 3 3 3 6
4 3 3 3 3 8 27 58 50 6 9 18 -2 3 4 -2 3 1 4 9 7 6 8 7 4 5 3 3 4 3 6 6 8 7 4 7 9 9 9 10 9 11 12 9 10 9 10 9 8 9 5 7 12 13 13 12 13 13 13 15 14 13 11 11 11 10 8 8 9 8 9 10 10 11 10 9 7 5 5 5 6 7 8 10 9 7 6 6 9 12 10 6 3 4 4 5 6
6 4 2 4 5 5 22 46 31 1 12 16 -1 4 4 -1 4 3 6 9 8 8 9 6 4 10 9 5 5 3 5 7 9 7 5 7 7 9 10 11 13 13 11 10 11 10 10 10 8 8 5 5 7 9 12 12 12 13 14 14 13 12 10 11 11 11 9 7 8 9 8 8 9 10 9 8 6 6 5 5 6 7 8 9 9 8 6 7 11 12 8 4 4 4 4 6 6
6 5 2 3 3 5 15 17 1 1 12 6 1 6 2 0 3 2 6 7 4 8 11 5 4 12 11 6 4 3 4 6 8 8 6 7 7 9 11 12 14 13 10 10 11 11 11 10 9 8 6 4 4 8 11 11 10 12 13 12 10 10 9 11 11 11 10 8 7 7 7 7 9 9 8 6 6 6 5 5 5 7 8 8 9 8 7 8 10 9 5 3 4 5 5 5 6
6 6 4 2 1 4 12 10 4 12 11 3 8 4 -2 4 5 2 5 7 3 6 11 7 5 10 8 5 4 1 4 5 7 9 7 7 9 10 12 13 13 12 9 9 9 10 12 11 10 8 9 11 9 8 8 9 9 11 13 11 9 9 9 10 12 12 10 9 7 6 7 8 8 8 7 7 8 8 6 5 5 6 7 7 8 8 9 10 9 6 3 4 5 6 6 5 6
6 6 5 3 3 2 6 7 8 20 14 7 13 3 -1 4 2 3 6 6 4 4 10 11 7 7 6 5 5 3 4 4 5 9 9 9 10 10 12 12 11 10 9 9 9 10 10 8 8 6 10 16 14 7 7 9 8 9 10 9 9 8 9 10 11 12 12 12 9 8 7 7 7 7 7 8 8 8 7 6 6 7 7 8 8 7 12 12 7 4 3 5 6 6 6 6 6
6 6 6 5 4 2 3 -1 6 30 23 7 12 4 1 3 -3 5 10 5 5 3 7 14 10 5 5 4 5 4 3 4 4 7 9 9 11 10 11 11 9 10 8 8 8 10 10 7 6 8 13 17 13 7 7 9 8 6 7 7 8 8 8 9 10 11 13 13 11 9 8 7 7 8 8 7 7 6 6 6 7 8 8 9 9 8 13 13 6 3 4 5 6 6 6 6 6
6 6 6 5 4 1 2 -1 8 34 25 6 11 1 -1 5 -1 5 8 3 5 3 6 15 12 4 4 4 3 3 3 3 4 7 9 10 10 9 11 10 9 10 8 7 9 10 10 9 9 12 15 14 9 6 6 9 8 6 7 7 7 7 7 7 8 9 10 10 10 8 7 7 8 9 8 6 5 5 5 7 8 8 9 9 9 10 11 9 4 3 4 5 5 5 6 6 6
6 7 7 4 5 1 0 6 12 29 25 9 9 1 -1 4 1 4 6 4 5 4 7 12 11 4 3 5 3 3 3 3 4 7 10 11 10 10 11 10 8 8 6 8 11 10 9 9 12 12 9 6 5 6 6 7 7 6 6 7 7 7 7 7 7 8 8 8 8 7 7 7 8 7 7 6 5 5 7 8 9 10 10 9 9 10 8 5 3 3 4 5 5 5 5 6 6
6 7 7 5 5 1 1 12 15 21 22 12 12 7 2 2 1 5 6 6 5 5 9 10 9 5 3 5 3 3 3 3 4 7 10 11 10 10 10 10 9 8 7 10 11 8 8 10 12 9 5 4 5 6 6 6 6 7 6 6 7 6 7 7 7 7 7 8 7 7 7 7 7 6 6 6 6 7 9 10 11 10 9 9 9 7 4 3 3 5 6 6 6 6 7 7 6
7 7 9 5 5 3 3 14 16 19 18 10 12 7 3 4 -1 4 8 5 4 4 7 9 9 6 3 5 3 3 3 2 4 6 9 10 10 10 10 9 10 11 9 10 10 8 9 11 10 8 6 6 6 6 7 7 7 8 8 7 7 7 6 7 7 7 7 8 8 7 7 7 7 8 7 8 8 9 11 11 11 10 9 9 7 3 3 4 5 6 6 6 6 7 8 7 7
6 7 10 7 6 5 4 9 10 22 29 14 9 7 7 7 -4 1 9 4 4 5 4 6 8 7 4 5 5 4 3 2 4 7 8 9 10 10 9 9 8 11 11 8 9 9 9 10 9 8 7 7 7 8 8 9 11 10 9 8 8 8 8 7 8 8 8 7 8 8 7 8 8 9 9 10 11 11 11 10 9 8 8 8 5 3 4 4 5 5 5 5 7 8 8 8 9
7 6 9 7 6 5 7 10 3 21 40 17 6 12 11 6 -2 3 8 4 6 9 7 4 5 8 5 5 5 3 3 3 4 6 7 9 10 10 9 8 9 11 11 8 8 9 9 9 8 6 6 7 8 9 10 10 12 11 10 9 9 10 10 10 9 10 10 9 10 11 10 11 12 12 12 12 12 11 10 8 7 7 7 6 4 3 4 4 5 5 4 6 9 10 8 8 8
7 7 7 6 5 4 7 15 9 16 32 19 9 11 5 3 2 4 6 3 6 10 10 4 3 8 6 5 4 2 3 3 4 7 6 8 9 9 9 7 9 12 10 8 9 9 9 7 6 6 6 8 9 10 10 11 12 12 10 9 9 10 11 11 11 12 13 13 14 15 15 14 14 13 12 12 10 9 8 6 6 5 5 4 4 4 5 5 6 5 5 8 12 12 9 8 7
5 6 7 5 5 4 2 9 13 12 18 19 13 1 -2 7 5 4 7 4 6 9 9 5 2 7 7 5 4 3 4 2 5 7 6 8 9 9 10 8 8 12 10 7 9 9 7 5 5 7 7 8 10 10 11 11 11 11 11 11 10 11 12 12 14 15 15 15 14 12 12 11 10 10 9 8 7 6 6 5 5 5 5 5 5 5 5 6 7 7 7 10 13 12 9 7 6
6 6 7 5 4 7 1 1 11 15 15 17 15 -3 -5 10 6 7 12 4 4 7 8 8 4 5 8 6 4 5 4 3 5 7 6 7 8 9 10 8 9 11 9 7 8 9 6 4 5 8 10 11 10 10 11 12 12 13 12 11 12 13 14 14 14 14 12 10 9 8 7 6 5 5 5 5 5 5 5 5 5 5 5 5 5 5 6 8 8 8 9 11 13 11 8 7 6
5 6 9 5 3 7 2 1 8 17 17 13 18 6 -6 2 2 8 17 4 2 7 7 9 7 5 7 6 6 6 4 4 5 6 7 7 7 10 10 8 9 10 8 7 8 9 6 4 6 8 11 11 10 10 12 13 13 13 12 11 13 14 13 13 12 10 8 6 5 5 4 4 4 4 5 5 5 5 6 6 6 6 6 6 6 7 9 10 8 7 8 10 11 10 7 6 6
5 5 10 6 5 7 3 3 4 10 15 7 13 12 -4 2 3 5 17 7 -1 6 8 10 8 5 6 6 6 7 5 4 5 6 5 7 8 10 11 8 8 8 7 8 8 8 6 4 6 9 10 10 11 12 13 14 13 12 12 12 12 11 9 8 7 5 5 4 4 4 5 5 5 5 5 5 5 6 6 6 6 6 6 7 7 9 10 9 9 8 7 9 10 9 7 5 5
7 4 8 7 5 6 4 5 -1 2 14 8 10 15 5 9 9 4 14 9 -2 2 8 9 8 6 5 7 7 6 6 4 4 6 5 7 9 10 11 8 7 8 6 7 8 7 6 5 8 10 10 11 12 13 14 13 12 10 10 9 7 7 6 4 4 4 4 4 4 4 5 5 6 6 5 5 5 5 6 7 7 6 6 6 7 8 9 8 8 8 6 7 9 9 7 5 5
8 4 6 8 5 4 3 4 -1 -2 11 13 9 11 11 12 11 9 14 10 -1 -1 7 8 7 7 4 5 8 4 4 5 4 6 6 6 8 9 11 9 7 7 6 6 6 6 6 5 9 12 12 12 12 13 14 12 10 9 8 7 5 4 4 4 5 5 4 4 4 4 4 5 5 5 5 6 6 6 8 8 7 7 6 6 6 7 8 8 8 7 5 6 8 8 8 6 5
5 5 6 8 6 4 1 2 2 -5 2 18 16 9 12 11 6 9 15 11 2 -2 5 9 5 6 6 4 7 5 3 4 4 5 7 6 7 8 10 10 8 6 6 5 5 5 5 6 10 14 13 11 11 11 12 12 9 8 7 6 6 5 5 5 4 4 3 3 3 4 4 5 5 5 5 6 7 8 8 9 8 7 7 7 7 7 8 8 7 7 5 5 6 7 8 6 5
1 4 6 7 7 5 1 -0 4 -1 -3 14 20 10 12 16 7 4 10 9 5 2 5 9 5 5 9 9 6 7 5 4 3 4 6 6 6 6 8 11 9 8 6 4 5 5 4 7 9 13 13 9 8 8 9 9 7 5 5 5 4 5 4 3 3 3 3 3 3 4 4 4 4 4 5 6 7 8 9 10 9 8 8 9 8 7 7 7 8 7 6 5 6 7 8 7 6
-2 2 5 5 5 6 5 0 1 4 -1 0 9 8 13 27 20 4 9 13 5 6 8 8 7 6 9 11 8 7 7 6 3 3 6 6 6 6 6 10 11 9 7 4 4 5 4 6 9 11 11 9 7 6 6 6 5 4 4 4 3 3 3 3 3 3 3 3 3 4 4 4 5 5 5 6 7 9 10 11 10 9 9 9 8 7 8 7 7 7 6 5 5 7 9 9 7
-1 2 5 5 6 4 6 3 -1 6 7 -2 0 3 6 27 36 15 7 13 4 2 11 9 6 7 9 10 9 8 8 7 5 4 7 5 5 7 5 7 11 11 9 6 4 5 5 6 9 11 9 7 6 5 5 4 4 4 4 4 3 3 3 3 2 3 3 3 3 3 4 4 5 5 5 7 9 10 11 10 9 9 9 10 9 9 8 7 7 6 6 5 5 7 9 9 8
2 4 4 5 8 5 6 4 -3 2 11 9 4 -1 -7 3 35 34 4 -1 5 -1 5 13 7 5 9 9 7 9 9 9 7 4 7 6 4 6 5 4 9 12 11 8 5 4 4 6 9 11 8 6 5 4 4 5 4 4 4 3 3 3 3 3 3 3 2 2 3 3 4 4 4 5 5 7 10 11 10 10 10 9 9 9 9 9 9 8 8 6 5 6 7 8 8 8 8
5 6 4 4 5 6 10 8 2 1 5 13 13 12 5 -12 11 44 19 -2 11 4 -2 11 11 4 6 8 7 8 9 10 9 6 6 6 4 5 6 4 5 11 12 9 7 5 3 6 9 11 10 6 4 3 4 5 5 4 4 3 3 3 2 2 2 3 3 3 2 3 3 3 4 4 5 7 10 11 9 10 11 10 10 9 9 10 10 10 9 7 6 7 8 8 7 8 8
4 5 7 6 3 3 9 9 6 4 1 8 8 10 20 3 -6 24 30 16 17 8 -2 5 10 8 6 5 6 7 9 10 8 8 9 5 5 6 6 5 4 7 12 10 8 5 3 5 7 10 10 6 5 4 3 5 5 5 5 4 4 3 2 3 2 3 3 4 4 4 4 4 4 5 6 8 11 11 8 9 11 10 10 9 8 9 9 10 10 8 7 7 8 8 7 7 7
3 4 7 7 6 2 7 13 9 2 2 11 10 -1 10 20 3 -3 12 30 30 10 -0 5 8 9 7 4 6 6 6 10 7 7 11 7 4 7 6 5 4 4 9 11 10 7 4 4 5 7 9 7 5 4 4 4 4 5 5 5 5 4 3 3 3 3 3 4 5 4 3 4 5 6 6 7 11 11 9 8 9 10 10 10 9 9 8 9 9 9 9 8 9 8 6 7 7
5 5 7 5 5 -1 2 15 13 2 2 13 20 10 3 15 18 -1 -7 21 40 21 2 4 7 8 8 4 6 8 4 6 8 7 10 9 4 5 7 6 5 4 5 9 10 9 6 4 4 5 6 7 6 4 3 3 4 4 4 5 5 4 5 4 4 4 4 4 5 4 4 6 7 7 6 6 10 12 9 7 8 9 10 10 9 9 9 8 8 9 8 8 8 6 5 6 6
6 2 7 7 4 2 4 10 10 5 3 7 16 19 11 6 14 15 0 6 33 34 11 2 5 7 10 6 3 8 8 4 7 7 8 10 6 4 7 7 6 5 4 5 9 11 8 5 4 4 5 6 6 5 4 3 3 3 3 4 4 3 4 4 4 4 4 4 4 4 5 6 7 7 5 5 9 11 10 8 8 8 8 9 9 10 10 9 9 9 9 9 8 7 7 8 7
8 2 8 11 3 2 9 10 7 6 6 7 11 15 17 12 7 11 9 8 27 40 21 2 3 3 5 9 5 3 7 5 5 7 7 8 8 5 5 7 7 5 4 4 5 9 10 8 5 4 4 4 5 5 5 4 3 3 3 3 4 4 3 4 4 3 4 4 3 4 5 5 7 7 5 6 8 10 10 8 7 7 7 8 10 10 10 10 10 10 10 10 10 9 9 8 8
9 5 5 10 6 -3 -0 3 2 4 3 5 11 10 11 14 9 4 6 8 23 46 37 5 -2 5 4 8 10 3 4 6 4 7 7 6 9 8 4 5 7 6 5 4 4 5 8 10 9 7 5 4 5 5 5 5 4 3 3 3 3 4 3 3 4 3 3 4 3 3 5 5 7 7 6 6 8 10 11 9 7 6 6 7 8 9 10 10 10 10 10 11 11 11 10 10 10
9 10 3 4 7 3 1 2 0 4 6 4 9 12 11 13 12 6 5 4 9 36 51 25 -0 3 6 7 11 6 2 6 6 6 7 6 8 10 6 3 6 8 6 4 4 4 4 7 10 10 8 6 6 5 5 5 5 4 3 3 3 3 3 3 3 3 3 3 3 3 4 5 7 8 7 7 9 10 10 9 7 7 6 6 7 8 8 8 9 9 8 8 9 9 9 9 9
7 10 6 3 4 4 5 5 4 7 9 8 11 13 12 16 16 10 7 7 7 16 36 43 25 5 1 6 13 11 3 5 8 5 6 7 7 10 9 4 4 7 7 5 4 5 3 4 6 9 10 9 8 7 5 5 5 5 4 4 3 2 3 3 3 3 3 3 4 3 4 6 7 7 7 8 9 9 10 9 8 7 7 7 7 7 8 8 8 8 8 8 8 8 8 9 9
6 8 8 6 7 9 9 7 7 8 9 8 12 15 13 16 19 15 9 7 14 15 12 30 41 24 7 3 11 15 6 3 9 7 6 8 7 8 10 7 4 4 7 7 5 4 4 3 3 4 7 10 11 10 8 7 6 5 5 4 4 4 4 4 4 4 4 5 5 4 5 6 6 6 7 9 10 8 8 9 7 7 6 6 6 5 6 6 6 7 8 8 8 7 8 8 8
2 6 10 6 6 13 12 7 3 3 7 6 4 7 9 14 17 17 14 8 13 19 10 9 26 36 26 5 3 15 11 3 8 10 8 9 9 9 9 8 7 4 4 7 7 6 4 4 3 3 4 5 8 9 10 11 10 9 7 6 6 6 6 6 6 6 6 7 7 6 7 7 5 6 8 10 10 8 7 7 7 8 6 5 5 4 4 5 5 5 5 5 6 6 6 6 6
2 3 17 13 3 7 9 8 7 1 5 7 0 0 3 8 14 14 15 14 9 12 13 6 11 32 36 13 1 12 13 5 6 8 9 10 9 10 10 8 7 5 4 5 7 8 6 5 4 3 4 3 3 5 6 8 10 11 11 10 10 9 9 8 8 8 10 10 9 8 7 7 6 7 8 10 10 8 7 6 6 7 7 6 6 5 5 4 5 5 5 5 4 4 5 5 6
10 1 17 22 8 9 10 8 13 10 5 6 3 4 3 0 6 12 14 16 11 7 10 9 10 29 39 22 7 11 10 5 5 6 8 9 9 11 11 9 6 5 5 4 5 7 7 7 6 4 4 4 4 5 4 3 5 6 7 8 9 10 9 9 8 8 9 8 7 7 5 5 6 7 8 9 9 8 8 7 5 5 6 6 6 6 6 5 6 6 6 6 6 6 6 6 5
Height
5886 5885 5884 5884 5884 5883 5883 5884 5884 5884 5886 5886 5886 5886 5886 5886 5886 5886 5886 5885 5885 5884 5884 5884 5884 5885 5886 5887 5887 5887 5887 5887 5887 5887 5888 5888 5888 5889 5888 5889 5889 5890 5891 5892 5892 5892 5893 5893 5893 5894 5895 5896 5896 5894 5894 5895 5897 5898 5898 5899 5900 5900 5900 5901 5902 5902 5903 5904 5904 5905 5905 5906 5906 5907 5907 5908 5908 5908 5909 5909 5910 5911 5911 5912 5913 5914 5915 5915 5915 5915 5915 5915 5914 5914 5914 5914 5914
5886 5885 5884 5884 5884 5883 5883 5884 5884 5885 5886 5886 5887 5887 5887 5886 5886 5887 5887 5886 5885 5884 5884 5885 5885 5886 5887 5888 5888 5888 5887 5888 5888 5888 5888 5889 5889 5889 5890 5890 5890 5891 5892 5893 5894 5895 5895 5895 5895 5896 5897 5897 5895 5895 5896 5897 5898 5899 5899 5900 5900 5901 5901 5902 5902 5902 5903 5904 5905 5905 5905 5906 5907 5907 5908 5908 5909 5909 5909 5910 5910 5911 5911 5911 5913 5914 5915 5916 5916 5916 5916 5915 5915 5915 5915 5915 5915
5886 5885 5885 5884 5884 5883 5882 5883 5884 5885 5886 5887 5887 5887 5887 5886 5887 5887 5887 5887 5886 5884 5884 5885 5886 5886 5888 5888 5888 5888 5888 5888 5889 5889 5889 5890 5890 5890 5891 5891 5891 5892 5893 5894 5895 5896 5897 5897 5897 5897 5897 5896 5896 5896 5897 5898 5900 5900 5900 5900 5901 5902 5902 5902 5902 5903 5903 5904 5905 5905 5906 5906 5907 5908 5908 5909 5909 5910 5910 5911 5911 5911 5912 5912 5913 5915 5916 5916 5916 5917 5917 5916 5916 5916 5916 5916 5917
5886 5885 5885 5885 5884 5882 5881 5882 5884 5885 5886 5888 5888 5887 5887 5887 5887 5887 5888 5887 5887 5885 5885 5885 5886 5887 5888 5889 5889 5889 5889 5889 5890 5891 5890 5890 5891 5892 5892 5893 5893 5894 5895 5896 5897 5898 5898 5898 5898 5898 5898 5897 5897 5897 5898 5900 5900 5901 5901 5901 5901 5902 5902 5903 5903 5903 5904 5904 5904 5905 5906 5907 5907 5908 5909 5909 5910 5910 5911 5912 5912 5912 5913 5914 5914 5915 5917 5917 5917 5918 5918 5917 5916 5917 5917 5917 5918
5886 5886 5886 5885 5883 5881 5880 5881 5883 5885 5887 5888 5888 5888 5888 5888 5888 5888 5888 5887 5887 5886 5886 5887 5887 5887 5889 5889 5889 5889 5890 5890 5890 5892 5891 5891 5893 5893 5893 5894 5894 5895 5896 5897 5898 5899 5899 5899 5899 5899 5899 5899 5899 5899 5899 5900 5901 5901 5901 5901 5901 5902 5903 5903 5904 5904 5904 5904 5904 5905 5906 5907 5908 5908 5909 5910 5910 5911 5911 5912 5912 5912 5913 5913 5914 5914 5916 5918 5919 5919 5919 5918 5917 5917 5918 5918 5918
5886 5886 5886 5885 5883 5880 5879 5881 5883 5886 5888 5889 5889 5888 5888 5888 5888 5889 5889 5888 5887 5887 5887 5888 5888 5888 5889 5890 5890 5890 5891 5891 5892 5893 5893 5892 5893 5894 5894 5895 5895 5896 5897 5897 5898 5899 5899 5900 5900 5900 5900 5900 5900 5900 5900 5901 5901 5902 5902 5902 5902 5903 5903 5904 5904 5904 5904 5904 5904 5905 5906 5907 5908 5909 5910 5910 5911 5911 5912 5912 5912 5913 5913 5913 5913 5914 5916 5918 5919 5919 5919 5918 5918 5919 5919 5918 5919
5887 5886 5886 5886 5884 5880 5880 5882 5884 5886 5888 5889 5889 5889 5889 5889 5889 5889 5890 5889 5888 5887 5888 5889 5889 5889 5890 5890 5891 5890 5891 5892 5893 5894 5894 5893 5894 5895 5895 5896 5896 5897 5897 5898 5898 5899 5900 5900 5900 5901 5901 5901 5901 5901 5901 5901 5901 5902 5902 5903 5903 5903 5903 5904 5905 5905 5905 5905 5905 5906 5907 5908 5909 5910 5910 5911 5912 5912 5912 5913 5913 5914 5914 5914 5914 5915 5916 5917 5918 5918 5919 5919 5919 5920 5920 5920 5920
5887 5887 5887 5886 5884 5882 5882 5883 5885 5887 5888 5889 5889 5889 5890 5890 5890 5890 5890 5889 5888 5888 5889 5889 5890 5890 5890 5891 5892 5892 5892 5893 5894 5895 5895 5894 5895 5896 5896 5897 5897 5898 5898 5898 5899 5899 5900 5900 5901 5901 5901 5901 5901 5902 5902 5902 5902 5902 5902 5903 5903 5903 5903 5903 5904 5905 5905 5906 5906 5906 5907 5909 5910 5910 5911 5911 5912 5913 5914 5914 5914 5914 5915 5915 5915 5916 5917 5918 5918 5919 5920 5921 5921 5921 5922 5922 5922
5888 5888 5887 5887 5885 5883 5883 5885 5886 5887 5889 5889 5889 5889 5890 5890 5890 5890 5890 5890 5889 5888 5889 5890 5890 5891 5891 5891 5893 5893 5893 5894 5895 5896 5895 5895 5896 5896 5897 5897 5898 5898 5898 5899 5899 5900 5900 5900 5900 5900 5900 5900 5901 5903 5902 5902 5902 5901 5902 5902 5903 5903 5903 5903 5904 5905 5905 5906 5907 5907 5908 5909 5910 5911 5911 5912 5913 5914 5915 5915 5915 5915 5916 5916 5916 5917 5918 5919 5920 5920 5921 5922 5922 5922 5923 5923 5924
5888 5888 5888 5887 5886 5884 5884 5885 5887 5888 5889 5890 5890 5890 5890 5890 5890 5891 5891 5890 5890 5889 5890 5890 5891 5892 5892 5892 5893 5894 5894 5895 5896 5896 5896 5896 5896 5897 5897 5898 5898 5898 5898 5899 5899 5900 5900 5899 5899 5899 5899 5900 5902 5903 5900 5900 5901 5901 5901 5902 5902 5902 5903 5904 5904 5904 5906 5906 5907 5908 5909 5910 5911 5912 5912 5913 5914 5915 5915 5916 5916 5916 5917 5917 5918 5919 5920 5920 5921 5922 5922 5923 5923 5923 5924 5925 5926
5888 5888 5888 5888 5887 5885 5885 5886 5887 5888 5889 5890 5890 5890 5890 5890 5891 5891 5891 5891 5891 5890 5891 5891 5892 5892 5893 5893 5894 5895 5895 5896 5897 5897 5897 5897 5897 5897 5898 5898 5898 5898 5898 5899 5899 5899 5899 5899 5899 5899 5900 5902 5903 5900 5898 5900 5901 5900 5900 5900 5901 5902 5903 5904 5904 5905 5906 5907 5908 5909 5910 5910 5911 5912 5913 5914 5915 5915 5916 5916 5916 5917 5918 5918 5919 5920 5920 5921 5922 5923 5923 5924 5924 5925 5925 5926 5927
5888 5888 5888 5888 5887 5887 5886 5887 5887 5888 5889 5890 5891 5891 5890 5891 5891 5892 5892 5892 5892 5891 5891 5892 5892 5893 5893 5893 5894 5895 5896 5897 5897 5898 5897 5897 5897 5897 5898 5898 5898 5898 5898 5898 5898 5898 5898 5898 5899 5900 5901 5902 5901 5898 5898 5900 5901 5900 5900 5901 5902 5903 5903 5904 5904 5905 5906 5907 5908 5909 5911 5911 5911 5912 5913 5914 5915 5916 5916 5917 5917 5918 5919 5919 5920 5920 5921 5922 5923 5923 5924 5925 5925 5926 5927 5928 5928
5887 5888 5888 5888 5887 5887 5887 5887 5888 5888 5890 5890 5891 5891 5891 5892 5892 5892 5892 5892 5893 5892 5892 5892 5893 5894 5894 5894 5895 5896 5896 5897 5898 5898 5898 5898 5898 5898 5898 5898 5899 5899 5899 5898 5898 5898 5897 5897 5899 5900 5899 5899 5899 5899 5899 5900 5900 5899 5901 5903 5903 5903 5903 5903 5904 5906 5907 5906 5907 5909 5911 5912 5912 5912 5913 5915 5916 5917 5917 5917 5918 5919 5920 5920 5921 5921 5922 5923 5924 5924 5925 5925 5926 5927 5928 5929 5929
5887 5887 5887 5887 5887 5887 5887 5888 5887 5888 5889 5890 5892 5892 5892 5892 5893 5893 5893 5893 5893 5893 5893 5893 5894 5895 5895 5894 5895 5896 5897 5898 5898 5899 5899 5899 5899 5899 5899 5899 5899 5899 5899 5898 5898 5898 5897 5897 5898 5899 5898 5899 5900 5899 5899 5899 5899 5898 5901 5903 5903 5903 5903 5903 5904 5906 5906 5907 5907 5908 5911 5913 5913 5913 5913 5915 5916 5917 5918 5918 5919 5920 5921 5921 5922 5922 5923 5924 5925 5925 5925 5926 5927 5928 5929 5930 5930
5886 5886 5887 5887 5887 5887 5887 5888 5888 5888 5889 5890 5892 5893 5893 5893 5893 5893 5893 5894 5894 5894 5894 5894 5895 5896 5896 5896 5896 5896 5897 5898 5899 5899 5899 5899 5899 5899 5899 5899 5899 5899 5899 5899 5898 5898 5897 5897 5897 5898 5900 5901 5900 5899 5899 5899 5898 5898 5900 5902 5901 5902 5903 5903 5904 5905 5905 5906 5907 5908 5911 5912 5913 5914 5913 5915 5917 5918 5919 5919 5920 5921 5922 5923 5923 5923 5924 5926 5926 5926 5926 5927 5928 5929 5930 5931 5931
5886 5886 5886 5886 5886 5886 5887 5887 5887 5887 5889 5890 5892 5893 5893 5894 5894 5894 5893 5894 5895 5894 5895 5896 5896 5897 5897 5897 5897 5897 5898 5898 5899 5899 5900 5900 5900 5900 5900 5899 5899 5899 5899 5899 5899 5898 5898 5897 5897 5899 5901 5901 5899 5899 5900 5899 5899 5899 5901 5902 5902 5902 5903 5904 5904 5905 5905 5906 5907 5909 5910 5911 5913 5914 5914 5915 5917 5919 5920 5920 5921 5923 5923 5924 5924 5925 5926 5927 5927 5927 5927 5928 5929 5930 5931 5932 5933
5885 5885 5886 5885 5885 5886 5886 5886 5886 5887 5889 5891 5891 5893 5893 5894 5894 5894 5894 5895 5896 5895 5895 5896 5897 5897 5898 5898 5898 5898 5898 5899 5899 5900 5900 5900 5900 5900 5900 5900 5900 5900 5900 5899 5899 5899 5898 5897 5898 5900 5901 5900 5899 5900 5901 5900 5899 5900 5901 5902 5902 5902 5903 5904 5904 5904 5905 5907 5908 5909 5910 5912 5914 5915 5916 5916 5918 5919 5921 5921 5922 5924 5925 5925 5925 5926 5927 5928 5928 5928 5929 5929 5930 5931 5932 5933 5934
5885 5885 5885 5885 5884 5884 5885 5885 5885 5886 5889 5890 5891 5892 5893 5893 5894 5893 5894 5895 5896 5896 5895 5896 5897 5898 5898 5898 5899 5899 5899 5899 5899 5900 5901 5901 5901 5901 5900 5900 5900 5900 5900 5899 5899 5899 5898 5898 5898 5900 5901 5900 5900 5901 5901 5900 5900 5900 5901 5901 5901 5902 5903 5904 5904 5905 5906 5907 5909 5910 5911 5913 5914 5915 5916 5917 5919 5920 5922 5923 5924 5925 5926 5926 5926 5927 5928 5928 5929 5929 5930 5931 5932 5933 5933 5934 5935
5884 5884 5884 5884 5883 5883 5883 5883 5883 5885 5887 5889 5890 5892 5892 5893 5893 5893 5894 5895 5896 5896 5895 5895 5897 5897 5898 5898 5899 5899 5899 5899 5900 5900 5901 5901 5901 5901 5901 5901 5901 5900 5900 5900 5899 5899 5899 5898 5899 5900 5901 5900 5901 5902 5902 5901 5901 5900 5900 5900 5901 5902 5903 5903 5903 5906 5907 5908 5909 5911 5912 5914 5915 5916 5918 5918 5920 5921 5923 5924 5925 5926 5927 5927 5928 5929 5929 5929 5930 5931 5931 5932 5933 5934 5935 5935 5936
5884 5884 5884 5883 5883 5883 5881 5880 5881 5883 5885 5888 5889 5891 5892 5893 5893 5893 5895 5895 5896 5897 5896 5896 5897 5897 5897 5898 5898 5899 5899 5900 5900 5900 5901 5901 5901 5901 5902 5902 5901 5901 5900 5900 5900 5900 5899 5899 5900 5901 5901 5901 5901 5902 5902 5902 5902 5902 5901 5901 5901 5902 5903 5903 5904 5907 5908 5908 5910 5911 5913 5914 5915 5917 5919 5919 5920 5922 5924 5925 5926 5927 5928 5928 5929 5930 5930 5931 5931 5932 5933 5934 5935 5935 5936 5936 5937
5883 5883 5883 5883 5882 5881 5879 5878 5879 5881 5884 5887 5889 5890 5892 5892 5893 5894 5895 5895 5896 5897 5898 5897 5897 5897 5897 5898 5898 5899 5900 5900 5900 5900 5900 5901 5902 5902 5902 5902 5902 5901 5901 5900 5900 5900 5900 5899 5900 5901 5902 5902 5901 5902 5902 5902 5902 5902 5902 5901 5902 5902 5903 5904 5906 5908 5909 5909 5911 5912 5914 5915 5917 5918 5919 5920 5922 5923 5925 5926 5927 5928 5929 5930 5930 5931 5931 5932 5933 5933 5934 5935 5936 5936 5937 5938 5938
5882 5883 5883 5883 5882 5881 5879 5877 5878 5881 5884 5887 5888 5890 5891 5892 5893 5894 5895 5895 5896 5897 5898 5898 5898 5898 5897 5898 5898 5899 5900 5901 5901 5901 5901 5901 5902 5902 5903 5902 5902 5902 5901 5901 5901 5901 5900 5900 5900 5902 5903 5903 5903 5902 5902 5902 5903 5903 5902 5902 5903 5903 5904 5906 5908 5909 5909 5910 5912 5914 5915 5916 5918 5919 5920 5922 5923 5924 5926 5927 5928 5929 5930 5931 5931 5932 5932 5933 5934 5934 5935 5936 5937 5938 5939 5939 5940
5881 5881 5882 5883 5883 5883 5881 5879 5881 5883 5885 5887 5888 5890 5891 5891 5893 5895 5895 5895 5896 5897 5898 5898 5899 5899 5898 5898 5898 5899 5900 5901 5901 5901 5901 5902 5902 5902 5903 5902 5902 5902 5901 5901 5901 5901 5901 5901 5901 5902 5903 5904 5905 5904 5904 5903 5903 5904 5904 5904 5905 5905 5906 5908 5909 5909 5910 5912 5913 5914 5916 5917 5919 5920 5921 5922 5924 5925 5927 5928 5929 5930 5931 5931 5932 5932 5933 5934 5935 5936 5937 5938 5938 5939 5940 5941 5941
5880 5880 5882 5883 5884 5884 5883 5882 5883 5885 5886 5887 5889 5889 5890 5891 5893 5895 5895 5895 5895 5897 5899 5898 5899 5899 5899 5899 5899 5899 5900 5901 5902 5902 5902 5902 5902 5902 5902 5902 5902 5902 5902 5902 5902 5902 5901 5901 5902 5902 5903 5904 5905 5906 5905 5904 5904 5904 5905 5905 5906 5907 5908 5909 5910 5910 5911 5913 5914 5915 5917 5918 5919 5921 5922 5923 5925 5926 5928 5929 5930 5931 5932 5932 5933 5934 5934 5935 5936 5937 5938 5939 5940 5940 5941 5942 5942
5879 5880 5881 5883 5884 5884 5884 5884 5884 5885 5886 5888 5889 5889 5890 5892 5893 5894 5895 5895 5895 5897 5899 5899 5899 5899 5899 5899 5899 5899 5901 5902 5902 5902 5902 5902 5902 5902 5902 5902 5902 5902 5902 5902 5902 5902 5902 5902 5903 5903 5903 5904 5905 5906 5907 5906 5906 5905 5905 5906 5907 5908 5909 5909 5910 5911 5912 5913 5915 5916 5918 5920 5921 5922 5923 5924 5926 5927 5929 5930 5931 5932 5932 5933 5934 5935 5935 5936 5937 5938 5939 5940 5941 5941 5942 5942 5943
5879 5879 5880 5882 5883 5883 5883 5883 5884 5885 5886 5887 5889 5890 5891 5892 5893 5894 5895 5894 5895 5897 5899 5899 5898 5899 5899 5900 5900 5900 5901 5902 5902 5903 5903 5903 5903 5902 5902 5902 5902 5902 5902 5903 5903 5903 5903 5903 5904 5904 5904 5904 5905 5906 5907 5908 5907 5907 5907 5907 5908 5908 5909 5910 5911 5912 5914 5915 5916 5918 5920 5921 5922 5923 5924 5925 5926 5928 5929 5930 5931 5932 5933 5934 5935 5936 5937 5937 5938 5939 5940 5941 5942 5942 5943 5943 5944
5878 5879 5880 5881 5882 5883 5883 5883 5884 5885 5885 5886 5888 5890 5891 5892 5893 5894 5895 5895 5896 5897 5898 5899 5899 5899 5899 5900 5900 5900 5901 5902 5903 5903 5903 5903 5903 5902 5902 5902 5902 5903 5903 5903 5904 5904 5904 5904 5905 5905 5904 5905 5905 5906 5907 5908 5909 5909 5909 5909 5909 5910 5911 5912 5913 5914 5915 5917 5918 5919 5921 5922 5923 5924 5925 5926 5927 5928 5930 5931 5932 5933 5934 5935 5936 5937 5938 5939 5939 5940 5941 5942 5943 5943 5944 5944 5945
5878 5879 5880 5880 5880 5881 5882 5883 5884 5884 5884 5886 5888 5889 5890 5892 5893 5894 5894 5894 5896 5897 5898 5899 5899 5899 5899 5900 5900 5901 5901 5902 5903 5903 5904 5903 5903 5902 5902 5902 5902 5903 5903 5904 5904 5905 5905 5905 5905 5906 5905 5906 5906 5907 5908 5909 5909 5910 5910 5911 5911 5912 5913 5914 5915 5916 5917 5918 5919 5920 5921 5922 5924 5925 5926 5927 5928 5929 5931 5932 5933 5934 5935 5936 5937 5938 5939 5940 5940 5941 5942 5943 5943 5944 5944 5945 5945
5877 5878 5879 5879 5879 5880 5881 5882 5883 5882 5883 5885 5887 5888 5889 5891 5892 5893 5894 5894 5895 5897 5898 5899 5899 5899 5899 5900 5901 5901 5902 5902 5903 5903 5904 5904 5903 5903 5902 5902 5903 5903 5904 5905 5905 5905 5906 5906 5906 5906 5906 5906 5907 5907 5908 5909 5910 5910 5911 5912 5912 5913 5914 5915 5916 5917 5918 5919 5920 5921 5922 5923 5924 5926 5927 5928 5929 5930 5931 5932 5934 5935 5936 5937 5937 5938 5939 5940 5941 5942 5942 5943 5944 5944 5945 5945 5946
5876 5877 5878 5878 5879 5879 5880 5881 5882 5881 5882 5884 5886 5888 5890 5891 5892 5893 5894 5894 5895 5897 5898 5899 5899 5899 5899 5900 5901 5901 5902 5903 5903 5904 5904 5904 5903 5903 5903 5903 5903 5904 5904 5905 5906 5906 5906 5907 5907 5907 5907 5907 5907 5908 5909 5909 5910 5911 5911 5912 5913 5914 5915 5916 5917 5918 5919 5920 5921 5922 5923 5924 5925 5926 5928 5929 5930 5931 5932 5933 5934 5935 5936 5937 5938 5939 5940 5941 5942 5942 5943 5944 5945 5945 5945 5946 5946
5875 5876 5877 5878 5878 5878 5879 5881 5881 5881 5881 5883 5885 5888 5889 5890 5892 5893 5894 5895 5895 5896 5897 5898 5898 5898 5899 5900 5901 5902 5902 5903 5903 5904 5905 5904 5903 5904 5904 5903 5904 5904 5905 5906 5907 5907 5907 5907 5908 5908 5908 5908 5908 5909 5910 5910 5911 5911 5912 5913 5914 5914 5915 5916 5917 5919 5919 5920 5922 5923 5924 5925 5926 5927 5928 5930 5931 5932 5933 5934 5935 5936 5937 5938 5939 5940 5941 5942 5942 5943 5944 5944 5945 5945 5945 5946 5947
5873 5875 5876 5877 5877 5878 5879 5880 5879 5880 5880 5882 5884 5886 5888 5889 5891 5892 5893 5895 5895 5895 5896 5897 5898 5898 5898 5899 5901 5902 5902 5903 5904 5904 5905 5904 5904 5904 5904 5904 5904 5905 5906 5907 5907 5908 5908 5908 5908 5909 5909 5909 5909 5910 5911 5911 5912 5912 5913 5914 5914 5915 5916 5917 5918 5920 5921 5922 5923 5924 5925 5926 5927 5928 5930 5931 5932 5933 5935 5935 5936 5937 5938 5939 5940 5941 5942 5942 5943 5943 5944 5945 5945 5945 5946 5946 5947
5872 5873 5874 5875 5876 5877 5878 5879 5879 5878 5879 5881 5883 5885 5888 5889 5890 5892 5893 5895 5896 5896 5895 5896 5898 5898 5898 5899 5901 5901 5902 5903 5904 5904 5905 5905 5905 5905 5905 5905 5905 5906 5907 5907 5908 5909 5909 5909 5909 5909 5910 5910 5910 5911 5912 5912 5913 5913 5914 5915 5916 5916 5917 5918 5920 5921 5922 5923 5924 5925 5926 5927 5928 5930 5931 5932 5933 5935 5936 5937 5938 5938 5939 5940 5941 5942 5943 5943 5943 5944 5945 5945 5945 5946 5946 5947 5948
5870 5871 5873 5874 5875 5875 5877 5878 5878 5878 5879 5881 5883 5885 5887 5888 5889 5891 5892 5894 5895 5896 5896 5896 5897 5898 5899 5899 5900 5901 5902 5903 5904 5904 5905 5905 5905 5905 5906 5906 5906 5907 5908 5908 5909 5909 5910 5910 5910 5910 5911 5911 5912 5912 5913 5913 5914 5914 5915 5916 5917 5918 5919 5920 5921 5922 5923 5925 5925 5926 5927 5928 5930 5931 5932 5933 5934 5936 5937 5938 5939 5939 5940 5941 5942 5943 5943 5944 5944 5945 5945 5946 5946 5946 5947 5948 5948
5868 5870 5871 5872 5873 5874 5876 5878 5878 5878 5879 5880 5882 5884 5885 5886 5888 5889 5891 5893 5894 5895 5895 5896 5897 5898 5899 5899 5900 5901 5902 5903 5904 5904 5905 5906 5906 5906 5906 5906 5907 5908 5909 5909 5910 5910 5911 5911 5911 5911 5911 5912 5912 5913 5913 5914 5915 5916 5917 5917 5918 5919 5920 5921 5922 5924 5925 5926 5927 5928 5929 5930 5931 5932 5934 5935 5936 5937 5938 5939 5939 5940 5941 5942 5942 5943 5943 5944 5945 5946 5946 5947 5947 5947 5948 5948 5949
5867 5869 5870 5871 5872 5873 5874 5877 5878 5878 5879 5880 5881 5883 5884 5886 5887 5888 5890 5892 5893 5894 5895 5897 5898 5899 5899 5900 5901 5902 5902 5903 5903 5904 5905 5906 5907 5907 5907 5907 5908 5909 5910 5910 5911 5911 5912 5912 5912 5912 5913 5913 5914 5914 5914 5915 5916 5917 5918 5918 5919 5920 5921 5922 5924 5925 5927 5928 5929 5930 5931 5932 5934 5935 5936 5937 5938 5938 5939 5939 5940 5941 5942 5942 5943 5943 5944 5945 5946 5946 5947 5947 5948 5948 5948 5949 5950
5866 5868 5869 5870 5871 5872 5873 5875 5878 5878 5878 5880 5881 5882 5883 5884 5886 5887 5889 5891 5893 5895 5896 5897 5898 5898 5899 5900 5900 5901 5902 5903 5903 5905 5906 5907 5908 5908 5908 5908 5909 5910 5910 5911 5911 5912 5913 5913 5913 5913 5914 5914 5915 5915 5916 5916 5917 5918 5919 5920 5920 5921 5923 5924 5925 5927 5929 5930 5931 5932 5933 5934 5936 5937 5937 5938 5939 5939 5940 5940 5941 5941 5942 5943 5943 5944 5945 5945 5946 5947 5947 5948 5949 5949 5949 5950 5950
5864 5866 5868 5869 5870 5872 5873 5874 5877 5878 5878 5879 5880 5881 5882 5883 5885 5886 5888 5890 5892 5894 5896 5897 5897 5898 5899 5900 5900 5901 5902 5903 5904 5905 5906 5907 5909 5909 5908 5909 5910 5911 5911 5912 5912 5913 5914 5914 5914 5915 5915 5916 5916 5916 5917 5918 5919 5920 5921 5922 5922 5924 5925 5926 5927 5929 5930 5932 5933 5934 5935 5936 5937 5938 5939 5939 5940 5940 5941 5941 5942 5942 5942 5943 5944 5944 5945 5946 5946 5947 5948 5948 5949 5950 5950 5951 5951
5862 5864 5866 5868 5869 5870 5872 5872 5874 5876 5877 5878 5879 5880 5881 5882 5884 5885 5887 5890 5892 5894 5895 5896 5896 5897 5898 5899 5900 5901 5901 5903 5904 5905 5907 5908 5909 5909 5909 5909 5910 5911 5912 5913 5913 5914 5915 5915 5916 5916 5916 5917 5917 5918 5919 5920 5920 5921 5923 5924 5925 5926 5927 5929 5930 5931 5932 5933 5934 5935 5936 5938 5938 5939 5940 5940 5941 5941 5941 5942 5942 5942 5943 5943 5944 5945 5945 5946 5947 5947 5948 5949 5949 5950 5951 5951 5952
5861 5863 5864 5866 5867 5868 5870 5870 5872 5875 5876 5877 5877 5878 5880 5881 5883 5885 5887 5889 5890 5892 5894 5895 5896 5896 5897 5898 5899 5900 5900 5902 5904 5906 5907 5908 5909 5910 5909 5910 5910 5912 5913 5914 5914 5915 5916 5916 5917 5918 5918 5918 5919 5919 5920 5921 5922 5923 5924 5925 5927 5928 5929 5930 5931 5933 5934 5935 5936 5937 5938 5939 5939 5940 5940 5941 5941 5941 5942 5942 5942 5943 5943 5944 5944 5945 5946 5947 5947 5948 5948 5949 5949 5950 5951 5952 5952
5859 5861 5862 5864 5865 5867 5869 5869 5871 5873 5874 5875 5876 5876 5878 5880 5882 5884 5885 5887 5889 5891 5893 5894 5895 5896 5896 5897 5898 5899 5900 5902 5904 5906 5907 5908 5909 5910 5910 5910 5911 5912 5913 5914 5915 5916 5917 5917 5918 5919 5920 5920 5921 5921 5922 5922 5923 5924 5925 5926 5928 5929 5931 5932 5933 5934 5935 5936 5937 5938 5939 5940 5940 5941 5941 5941 5942 5942 5942 5942 5943 5943 5944 5944 5945 5946 5946 5947 5948 5948 5949 5949 5950 5951 5951 5952 5952
5857 5858 5860 5862 5864 5866 5867 5868 5869 5871 5872 5874 5874 5874 5876 5878 5880 5882 5884 5885 5887 5889 5892 5893 5895 5896 5897 5898 5898 5899 5900 5901 5903 5905 5906 5908 5909 5910 5910 5911 5912 5913 5914 5915 5916 5917 5918 5918 5919 5920 5921 5922 5923 5923 5924 5925 5925 5926 5927 5928 5929 5930 5932 5933 5934 5935 5936 5937 5938 5939 5940 5940 5941 5941 5942 5942 5942 5942 5943 5943 5943 5944 5944 5945 5945 5946 5947 5948 5948 5949 5949 5949 5950 5951 5951 5952 5952
5855 5856 5857 5859 5861 5863 5864 5866 5868 5869 5871 5872 5872 5873 5874 5876 5878 5880 5882 5883 5885 5888 5890 5892 5893 5896 5898 5897 5897 5899 5900 5902 5903 5905 5906 5907 5909 5910 5911 5911 5912 5913 5914 5916 5917 5918 5918 5919 5920 5921 5922 5923 5924 5925 5926 5927 5927 5928 5929 5930 5931 5932 5933 5934 5936 5937 5938 5938 5939 5940 5941 5941 5942 5942 5942 5942 5942 5943 5943 5944 5944 5944 5945 5945 5946 5947 5947 5948 5949 5949 5950 5950 5951 5951 5951 5952 5952
5853 5854 5855 5858 5859 5861 5863 5865 5867 5868 5870 5871 5871 5872 5872 5874 5876 5878 5880 5881 5883 5886 5889 5890 5893 5895 5897 5897 5897 5899 5900 5902 5903 5904 5906 5907 5909 5910 5911 5912 5913 5914 5915 5916 5917 5918 5919 5920 5921 5922 5923 5925 5926 5927 5928 5928 5929 5930 5931 5932 5932 5934 5935 5936 5937 5938 5938 5939 5940 5941 5941 5942 5942 5942 5943 5943 5943 5943 5944 5944 5944 5945 5945 5946 5946 5947 5948 5948 5949 5949 5950 5951 5951 5952 5952 5952 5952
5851 5852 5854 5856 5858 5860 5862 5864 5866 5867 5868 5870 5870 5871 5871 5872 5874 5876 5878 5879 5882 5885 5888 5890 5892 5895 5896 5897 5897 5898 5900 5901 5903 5904 5905 5906 5908 5910 5911 5912 5913 5915 5916 5917 5918 5919 5920 5921 5922 5923 5925 5926 5927 5928 5929 5930 5931 5931 5932 5933 5934 5935 5936 5937 5938 5939 5939 5940 5941 5941 5942 5942 5942 5943 5943 5943 5944 5944 5944 5944 5945 5945 5946 5946 5947 5947 5948 5949 5949 5950 5950 5951 5952 5952 5952 5953 5953
5849 5850 5852 5855 5857 5859 5861 5863 5864 5865 5867 5868 5868 5869 5870 5871 5873 5873 5876 5878 5881 5884 5887 5889 5891 5894 5895 5896 5897 5898 5899 5901 5902 5903 5904 5905 5907 5910 5911 5912 5913 5915 5916 5917 5918 5919 5920 5922 5923 5924 5926 5927 5928 5929 5930 5931 5932 5933 5933 5934 5935 5936 5937 5938 5938 5939 5940 5941 5942 5942 5942 5943 5943 5943 5944 5944 5944 5944 5945 5945 5945 5946 5946 5946 5947 5948 5948 5949 5950 5950 5951 5952 5952 5953 5953 5953 5953
5846 5848 5851 5853 5856 5857 5859 5861 5863 5864 5866 5866 5867 5868 5869 5870 5872 5873 5875 5878 5881 5883 5885 5887 5890 5892 5894 5895 5896 5898 5899 5901 5902 5903 5904 5905 5907 5909 5911 5912 5913 5915 5916 5918 5918 5919 5921 5922 5924 5925 5927 5928 5929 5930 5931 5932 5933 5934 5935 5936 5936 5937 5938 5939 5939 5940 5941 5942 5942 5943 5943 5943 5944 5944 5944 5945 5945 5945 5945 5945 5945 5946 5946 5947 5947 5948 5949 5949 5950 5951 5952 5952 5953 5953 5953 5953 5953
5844 5846 5849 5851 5854 5856 5858 5860 5862 5863 5864 5864 5866 5867 5867 5869 5871 5873 5874 5876 5878 5881 5883 5886 5889 5891 5893 5895 5896 5897 5898 5900 5901 5903 5904 5906 5907 5909 5911 5913 5914 5915 5916 5918 5919 5919 5921 5922 5924 5925 5927 5928 5930 5931 5932 5933 5934 5935 5936 5937 5938 5938 5939 5940 5941 5941 5942 5942 5943 5943 5944 5944 5945 5945 5945 5945 5945 5945 5946 5946 5946 5946 5947 5948 5948 5949 5949 5950 5950 5951 5952 5953 5953 5954 5954 5954 5954
5843 5845 5847 5850 5853 5856 5858 5859 5860 5862 5862 5864 5865 5865 5867 5868 5869 5871 5873 5874 5876 5878 5881 5883 5886 5889 5892 5894 5896 5897 5897 5899 5900 5902 5904 5906 5907 5909 5911 5913 5914 5914 5915 5917 5918 5919 5920 5922 5923 5925 5927 5928 5929 5931 5932 5933 5934 5935 5936 5937 5938 5939 5940 5941 5942 5942 5943 5943 5944 5944 5944 5945 5945 5945 5946 5946 5946 5946 5946 5947 5947 5947 5947 5948 5949 5949 5950 5950 5951 5952 5953 5953 5954 5954 5954 5955 5955
5842 5844 5847 5850 5853 5856 5857 5858 5859 5860 5861 5863 5864 5864 5866 5867 5867 5869 5872 5872 5873 5876 5878 5880 5883 5886 5890 5892 5894 5895 5896 5898 5899 5901 5903 5905 5906 5907 5910 5912 5913 5914 5915 5916 5918 5919 5921 5922 5923 5925 5927 5928 5929 5931 5932 5933 5934 5935 5937 5938 5939 5940 5941 5941 5942 5943 5943 5944 5944 5945 5945 5945 5945 5945 5946 5946 5946 5947 5947 5947 5948 5948 5948 5948 5949 5950 5950 5951 5951 5952 5953 5954 5954 5954 5955 5955 5955
5842 5844 5848 5851 5853 5854 5856 5856 5858 5859 5861 5862 5863 5864 5865 5866 5866 5868 5870 5870 5871 5873 5875 5878 5880 5883 5886 5888 5890 5892 5894 5896 5898 5900 5902 5904 5905 5907 5909 5911 5912 5914 5915 5916 5917 5919 5920 5922 5923 5925 5926 5928 5929 5931 5932 5933 5934 5936 5937 5938 5939 5940 5941 5942 5942 5943 5943 5944 5944 5945 5945 5945 5946 5946 5946 5947 5947 5947 5947 5948 5948 5948 5949 5949 5949 5950 5951 5951 5952 5953 5953 5954 5954 5955 5955 5955 5956
5841 5843 5847 5850 5851 5852 5854 5855 5856 5858 5860 5862 5863 5863 5864 5864 5866 5867 5868 5869 5870 5870 5872 5875 5877 5881 5883 5885 5887 5890 5892 5894 5897 5899 5901 5903 5905 5906 5908 5910 5911 5913 5914 5915 5916 5917 5919 5921 5923 5924 5926 5928 5929 5931 5932 5933 5935 5936 5937 5938 5939 5940 5941 5941 5942 5943 5943 5944 5944 5945 5945 5946 5946 5946 5947 5947 5947 5948 5948 5948 5949 5949 5949 5950 5950 5951 5951 5952 5953 5953 5954 5954 5955 5955 5955 5955 5956
5840 5843 5846 5848 5849 5851 5853 5854 5856 5858 5860 5862 5862 5863 5863 5863 5864 5866 5866 5868 5868 5869 5870 5873 5875 5878 5881 5884 5887 5889 5891 5893 5896 5898 5900 5902 5904 5906 5907 5909 5911 5912 5914 5915 5915 5916 5918 5920 5922 5924 5926 5927 5929 5930 5932 5933 5934 5935 5937 5938 5939 5939 5940 5941 5942 5943 5943 5944 5944 5945 5945 5946 5946 5946 5947 5947 5948 5948 5948 5949 5949 5949 5950 5950 5951 5951 5952 5952 5953 5954 5954 5955 5955 5955 5955 5955 5956
5839 5842 5845 5846 5847 5850 5852 5854 5856 5858 5860 5861 5862 5862 5862 5862 5863 5864 5865 5866 5867 5868 5869 5871 5874 5876 5879 5883 5886 5888 5890 5892 5895 5897 5898 5900 5902 5905 5907 5908 5910 5911 5913 5914 5914 5916 5918 5919 5921 5923 5925 5926 5928 5930 5931 5933 5934 5935 5936 5937 5938 5939 5940 5941 5942 5942 5943 5943 5944 5945 5945 5946 5946 5947 5947 5947 5948 5948 5948 5949 5950 5950 5950 5951 5951 5952 5952 5953 5953 5954 5954 5955 5955 5955 5955 5955 5955
5837 5840 5842 5844 5846 5849 5851 5854 5856 5858 5859 5860 5860 5861 5861 5861 5862 5862 5864 5865 5866 5867 5868 5870 5872 5875 5878 5881 5884 5887 5888 5890 5893 5895 5897 5899 5901 5904 5906 5907 5909 5910 5912 5913 5914 5916 5917 5919 5921 5922 5924 5926 5928 5930 5931 5932 5934 5935 5936 5937 5938 5939 5940 5940 5941 5942 5942 5943 5944 5944 5945 5945 5946 5946 5947 5947 5948 5948 5949 5949 5950 5950 5951 5951 5952 5952 5953 5953 5953 5954 5954 5954 5955 5955 5955 5955 5955
5836 5838 5839 5842 5844 5847 5850 5852 5854 5856 5857 5859 5860 5860 5860 5860 5860 5861 5862 5864 5865 5866 5867 5869 5870 5873 5877 5879 5882 5885 5887 5889 5892 5894 5896 5898 5900 5902 5905 5906 5908 5909 5911 5913 5914 5916 5917 5918 5920 5922 5923 5925 5927 5929 5930 5932 5933 5934 5935 5936 5938 5938 5939 5940 5941 5941 5942 5943 5943 5944 5945 5945 5946 5946 5947 5947 5948 5948 5949 5949 5950 5950 5951 5951 5952 5952 5953 5953 5953 5954 5954 5954 5954 5954 5955 5954 5954
5837 5838 5839 5841 5843 5846 5848 5851 5853 5855 5857 5858 5858 5859 5859 5859 5859 5860 5861 5862 5863 5864 5865 5867 5869 5870 5873 5877 5880 5883 5886 5888 5890 5893 5895 5897 5899 5901 5903 5905 5906 5907 5909 5912 5914 5915 5917 5918 5920 5921 5923 5924 5926 5927 5929 5931 5932 5933 5935 5936 5937 5938 5938 5939 5940 5941 5942 5942 5943 5943 5944 5945 5945 5946 5946 5947 5947 5948 5948 5949 5950 5950 5951 5951 5952 5952 5952 5953 5953 5953 5954 5954 5954 5954 5954 5954 5954
5835 5837 5837 5839 5842 5844 5847 5850 5852 5854 5856 5857 5857 5858 5858 5859 5859 5859 5860 5861 5862 5863 5864 5866 5867 5868 5870 5874 5877 5881 5884 5887 5889 5891 5893 5895 5897 5899 5901 5903 5905 5907 5909 5911 5913 5915 5917 5918 5920 5921 5922 5923 5924 5926 5927 5929 5931 5932 5933 5935 5936 5937 5938 5939 5939 5940 5941 5942 5942 5943 5944 5944 5945 5945 5946 5946 5947 5947 5948 5948 5949 5950 5950 5951 5951 5952 5952 5952 5953 5953 5953 5953 5953 5953 5953 5953 5953